• In Netherlands
  • List of Countries
  • For 7 days
  • Water Temperature
  • Satellite Maps
  • Weather Map
  • Weather Widgets
  • user-avatar
    Login

    Hourly Weather Qala i Naw

    Today, 20 February, Monday

    Time Temperature Precipitation Wind Pressure Humidity
    00:00 -9°C° 0 mm 0 mps 685 mmHg 89%
    01:00 -9°C° 0 mm 0 mps 685 mmHg 87%
    02:00 -9°C° 0 mm 0 mps 685 mmHg 85%
    03:00 -9°C° 0 mm 0 mps 685 mmHg 82%
    04:00 -12°C° 0 mm 0 mps 684 mmHg 82%
    05:00 -12°C° 0 mm 1 mps 684 mmHg 79%
    06:00 -11°C° 0 mm 1 mps 684 mmHg 76%
    07:00 -11°C° 0 mm 1 mps 684 mmHg 73%
    08:00 -7°C° 0 mm 1 mps 684 mmHg 74%
    09:00 -2°C° 0 mm 1 mps 685 mmHg 75%
    10:00 +2°C° 0 mm 1 mps 686 mmHg 76%
    11:00 +2°C° 0 mm 1 mps 686 mmHg 80%
    12:00 +3°C° 0 mm 1 mps 685 mmHg 84%
    13:00 +3°C° 0 mm 1 mps 685 mmHg 88%
    14:00 +2°C° 0 mm 1 mps 684 mmHg 88%
    15:00 +2°C° 0 mm 1 mps 684 mmHg 88%
    16:00 +2°C° 0 mm 1 mps 684 mmHg 88%
    17:00 -1°C° 0 mm 1 mps 683 mmHg 89%
    18:00 -4°C° 0 mm 1 mps 682 mmHg 89%
    19:00 -8°C° 0 mm 1 mps 682 mmHg 90%
    20:00 -8°C° 0 mm 1 mps 682 mmHg 87%
    21:00 -8°C° 0 mm 1 mps 682 mmHg 84%
    22:00 -8°C° 0 mm 1 mps 682 mmHg 82%
    23:00 -8°C° 0 mm 1 mps 681 mmHg 80%

    Tomorrow, 21 February, Tuesday

    Time Temperature Precipitation Wind Pressure Humidity
    00:00 -8°C° 0 mm 1 mps 681 mmHg 79%
    01:00 -8°C° 0 mm 0 mps 681 mmHg 78%
    02:00 -8°C° 0 mm 0 mps 680 mmHg 77%
    03:00 -8°C° 0 mm 1 mps 680 mmHg 76%
    04:00 -8°C° 0 mm 1 mps 680 mmHg 76%
    05:00 -8°C° 0 mm 1 mps 680 mmHg 74%
    06:00 -8°C° 0 mm 1 mps 680 mmHg 73%
    07:00 -8°C° 0 mm 1 mps 680 mmHg 72%
    08:00 -4°C° 0 mm 0 mps 681 mmHg 76%
    09:00 -1°C° 0 mm 0 mps 681 mmHg 81%
    10:00 +3°C° 0 mm 0 mps 682 mmHg 85%
    11:00 +3°C° 0 mm 0 mps 681 mmHg 86%
    12:00 +4°C° 0 mm 1 mps 681 mmHg 87%
    13:00 +5°C° 0 mm 1 mps 681 mmHg 89%
    14:00 +5°C° 0 mm 1 mps 680 mmHg 88%
    15:00 +3°C° 0 mm 0 mps 680 mmHg 88%
    16:00 +3°C° 0 mm 0 mps 680 mmHg 88%
    17:00 +1°C° 0 mm 0 mps 679 mmHg 86%
    18:00 -2°C° 0 mm 0 mps 678 mmHg 83%
    19:00 -4°C° 0 mm 0 mps 678 mmHg 81%
    20:00 -4°C° 0 mm 0 mps 678 mmHg 77%
    21:00 -3°C° 0 mm 1 mps 678 mmHg 72%
    22:00 -3°C° 0 mm 1 mps 678 mmHg 67%
    23:00 -2°C° 0 mm 1 mps 678 mmHg 64%

    Day after tomorrow, 22 February, Wednesday

    Time Temperature Precipitation Wind Pressure Humidity
    00:00 -2°C° 0 mm 1 mps 678 mmHg 60%
    01:00 -2°C° 0 mm 1 mps 678 mmHg 57%
    02:00 -2°C° 0 mm 1 mps 677 mmHg 55%
    03:00 -2°C° 0 mm 1 mps 677 mmHg 54%
    04:00 -3°C° 0 mm 2 mps 677 mmHg 52%
    05:00 -3°C° 0 mm 2 mps 677 mmHg 51%
    06:00 -2°C° 0 mm 2 mps 678 mmHg 50%
    07:00 -2°C° 0 mm 2 mps 678 mmHg 48%
    08:00 +1°C° 0 mm 2 mps 679 mmHg 59%
    09:00 +4°C° 0 mm 2 mps 679 mmHg 70%
    10:00 +6°C° 0 mm 2 mps 680 mmHg 81%
    11:00 +6°C° 0 mm 2 mps 680 mmHg 80%
    12:00 +8°C° 0 mm 1 mps 679 mmHg 79%
    13:00 +8°C° 0 mm 1 mps 679 mmHg 79%
    14:00 +8°C° 0 mm 1 mps 679 mmHg 78%
    15:00 +8°C° 0 mm 1 mps 679 mmHg 77%
    16:00 +8°C° 0 mm 1 mps 679 mmHg 77%
    17:00 +6°C° 0 mm 1 mps 679 mmHg 70%
    18:00 +4°C° 0 mm 2 mps 679 mmHg 63%
    19:00 +2°C° 0 mm 2 mps 679 mmHg 56%
    20:00 +1°C° 0 mm 3 mps 679 mmHg 54%
    21:00 +1°C° 0 mm 3 mps 680 mmHg 53%
    22:00 +1°C° 0 mm 3 mps 680 mmHg 51%
    23:00 +1°C° 0 mm 3 mps 680 mmHg 51%

    23 February, Thursday

    Time Temperature Precipitation Wind Pressure Humidity
    00:00 +1°C° 0 mm 3 mps 680 mmHg 50%
    01:00 +1°C° 0 mm 3 mps 680 mmHg 50%
    02:00 +1°C° 0 mm 3 mps 680 mmHg 50%
    03:00 +1°C° 0 mm 3 mps 680 mmHg 50%
    04:00 +1°C° 0 mm 3 mps 680 mmHg 50%
    05:00 +1°C° 0 mm 3 mps 681 mmHg 50%
    06:00 +1°C° 0 mm 3 mps 681 mmHg 51%
    07:00 +1°C° 0 mm 3 mps 681 mmHg 51%
    08:00 +3°C° 0 mm 3 mps 682 mmHg 57%
    09:00 +5°C° 0 mm 3 mps 682 mmHg 64%
    10:00 +8°C° 0 mm 3 mps 683 mmHg 70%
    11:00 +9°C° 0 mm 2 mps 683 mmHg 69%
    12:00 +10°C° 0 mm 2 mps 682 mmHg 68%
    13:00 +10°C° 0 mm 2 mps 682 mmHg 67%
    14:00 +10°C° 0 mm 2 mps 682 mmHg 66%
    15:00 +10°C° 0 mm 2 mps 682 mmHg 64%
    16:00 +10°C° 0 mm 2 mps 681 mmHg 63%
    17:00 +8°C° 0 mm 2 mps 682 mmHg 59%
    18:00 +7°C° 0 mm 2 mps 682 mmHg 56%
    19:00 +4°C° 0 mm 3 mps 682 mmHg 52%
    20:00 +4°C° 0 mm 3 mps 682 mmHg 51%
    21:00 +4°C° 0 mm 3 mps 682 mmHg 50%
    22:00 +4°C° 0 mm 3 mps 682 mmHg 49%
    23:00 +4°C° 0 mm 3 mps 682 mmHg 48%

    24 February, Friday

    Time Temperature Precipitation Wind Pressure Humidity
    00:00 +4°C° 0 mm 3 mps 682 mmHg 48%
    01:00 +4°C° 0 mm 3 mps 681 mmHg 47%
    02:00 +4°C° 0 mm 3 mps 681 mmHg 47%
    03:00 +3°C° 0 mm 3 mps 681 mmHg 47%
    04:00 +3°C° 0 mm 3 mps 681 mmHg 47%
    05:00 +5°C° 0 mm 2 mps 681 mmHg 48%
    06:00 +5°C° 0 mm 2 mps 681 mmHg 50%
    07:00 +5°C° 0 mm 2 mps 682 mmHg 51%
    08:00 +7°C° 0 mm 2 mps 682 mmHg 54%
    09:00 +9°C° 0 mm 2 mps 682 mmHg 57%
    10:00 +11°C° 0 mm 1 mps 683 mmHg 60%
    11:00 +10°C° 0 mm 2 mps 683 mmHg 59%
    12:00 +12°C° 0 mm 2 mps 682 mmHg 58%
    13:00 +12°C° 0 mm 2 mps 682 mmHg 58%
    14:00 +10°C° 0 mm 2 mps 682 mmHg 61%
    15:00 +9°C° 0 mm 2 mps 682 mmHg 64%
    16:00 +8°C° 0 mm 2 mps 682 mmHg 67%
    17:00 +8°C° 0.2 mm 1 mps 683 mmHg 71%
    18:00 +8°C° 0.2 mm 1 mps 683 mmHg 74%
    19:00 +7°C° 0.2 mm 1 mps 684 mmHg 77%
    20:00 +6°C° 0.1 mm 1 mps 684 mmHg 78%
    21:00 +6°C° 0.1 mm 1 mps 685 mmHg 78%
    22:00 +6°C° 0.1 mm 1 mps 685 mmHg 79%
    23:00 +5°C° 0 mm 1 mps 685 mmHg 80%

    25 February, Saturday

    Time Temperature Precipitation Wind Pressure Humidity
    00:00 +3°C° 0 mm 0 mps 685 mmHg 82%
    01:00 +2°C° 0 mm 0 mps 685 mmHg 83%
    02:00 +2°C° 0 mm 0 mps 685 mmHg 84%
    03:00 +2°C° 0 mm 0 mps 685 mmHg 84%
    04:00 +3°C° 0 mm 1 mps 685 mmHg 85%
    05:00 +3°C° 0 mm 1 mps 685 mmHg 84%
    06:00 +3°C° 0 mm 1 mps 686 mmHg 84%
    07:00 +4°C° 0 mm 1 mps 686 mmHg 83%
    08:00 +5°C° 0 mm 1 mps 687 mmHg 78%
    09:00 +7°C° 0 mm 1 mps 687 mmHg 73%
    10:00 +9°C° 0 mm 1 mps 687 mmHg 67%
    11:00 +10°C° 0 mm 1 mps 687 mmHg 65%
    12:00 +10°C° 0 mm 2 mps 686 mmHg 63%
    13:00 +10°C° 0 mm 2 mps 686 mmHg 60%
    14:00 +10°C° 0 mm 2 mps 685 mmHg 60%
    15:00 +10°C° 0 mm 2 mps 685 mmHg 61%
    16:00 +10°C° 0 mm 2 mps 685 mmHg 61%
    17:00 +9°C° 0 mm 2 mps 684 mmHg 66%
    18:00 +8°C° 0 mm 1 mps 684 mmHg 72%
    19:00 +6°C° 0 mm 1 mps 684 mmHg 78%
    20:00 +6°C° 0 mm 1 mps 683 mmHg 77%
    21:00 +6°C° 0 mm 1 mps 683 mmHg 76%
    22:00 +6°C° 0 mm 1 mps 683 mmHg 75%
    23:00 +5°C° 0 mm 1 mps 682 mmHg 72%
    Show more